Location: Poughquag
(41.6090°N, 73.6820°W)
Time: 03:01:46
(UTC-04:00)

Vanguard 1 - Pass Details

Date: 06 June 2020
Orbit: 650 x 3833 km, 34.2° (Epoch: 06 July)

Event Time Altitude Azimuth Distance (km) Brightness Sun altitude
Rises 07:50:40 0° 266° (W) 6,152 13.6 25.3°
Reaches altitude 10° 07:54:07 10° 264° (W) 5,478 13.4 25.9°
Maximum altitude 08:12:22 69° 187° (S) 3,809 13.4 29.3°
Drops below altitude 10° 08:35:42 10° 110° (ESE) 6,735 15.5 33.6°
Sets 08:40:32 0° 109° (ESE) 7,555 15.5 34.5°
